sat.trackr.live / text

‹ back to catalog

STARLINK-30300

NORAD 57715 · 2023-129T

PAYLOAD ACTIVE UNKNOWN

§ Identity

Operator
Country
US
Launch date
2023-08-27
Launch site
AFETR
Launch vehicle
Mass (kg)
RCS (m²)

Purposes: comms

External: N2YO · Heavens-Above · Gunter

§ Orbital elements

Epoch: 2026-09-20T21:05:05.725536Z

Period
94.27 min
Inclination
43.0019°
Eccentricity
0.0001381
Mean motion
15.27591860 rev/d
Perigee alt
482.1 km
Apogee alt
484.0 km
Semi-major
6,861.2 km
B*
2.9830e-5
RAAN
95.6248°
Arg perigee
271.9484°
Mean anomaly
88.1210°
Rev number
17,053

§ Raw data

STARLINK-303001 57715U 23129T   26263.87853849  .00000559  00000+0  29830-4 0  99972 57715  43.0019  95.6248 0001381 271.9484  88.1210 15.27591860170536

JSON: /api/v1/satellites/57715 · /tle

For live sub-satellite position, see the globe view (requires WebGL).

§ Visibility from observer

Set your observer location to see the next 7 days of passes ≥ 10°. The values pass through the URL so the page stays shareable.

No JS? Fill the form by hand. The geolocation button needs JavaScript.